Location: 22
(39.7117°N, 89.5929°W)
Time: 05:49:56
(UTC-05:00)

Vanguard 1 Rocket - Pass Details

Date: 12 February 2023
Orbit: 652 x 4223 km, 34.3° (Epoch: 26 March)

Event Time Altitude Azimuth Distance (km) Brightness Sun altitude
Rises 08:05:07 0° 199° (SSW) 3,088 10.3 11.6°
Reaches altitude 10° 08:08:05 10° 175° (S) 2,386 10.1 12.1°
Maximum altitude 08:11:25 16° 137° (SE) 2,295 11.3 12.7°
Drops below altitude 10° 08:15:40 10° 101° (ESE) 3,218 11.9 13.4°
Sets 08:20:47 0° 84° (E) 4,861 12.0 14.2°
